Flag for U.S.A. Weather past 2 weeks in New Salem, North Dakota, U.S.A.

Now
81 °F

Sunny.


Feels Like: 81 °F
Forecast: 54 / 84 °F
Wind: 9 mph from Southeast

Location: Bismarck Municipal Airport

Current Time: Aug 4, 2015 at 1:16:04 PM

Latest Report: Aug 4, 2015 at 12:52 PM


Visibility: 10 mi

Pressure: 29.96 "Hg (27.78 "Hg at 664m altitude)

Humidity: 41%

Dew point: 55 °F

Location of New SalemLocation

Historic Weather in New Salem — Graph

°F

New Salem temperature yesterday

Maximum temperature yesterday: 82 °F (at 3:52 PM)
Minimum temperature yesterday: 51 °F (at 4:52 AM)
Average temperature yesterday: 68 °F

Past Weeks' High & Low Weather Summary

 TemperatureHumidityPressure
High94 °F (Jul 23, 4:52 PM)96% (Jul 21, 4:52 AM)30.16 "Hg (Jul 21, 4:52 AM)
Low50 °F (Aug 4, 5:52 AM)25% (Jul 30, 4:52 PM)29.56 "Hg (Jul 28, 12:52 AM)
Average73 °F61%29.88 "Hg
* Reported Jul 20 11:52 AM — Aug 4 11:52 AM, New Salem, Weather by CustomWeather, © 2015

Note: Actual official high and low records may vary slightly from our data, if they occured in-between our weather recording intervals... More about our weather records

Advertising

New Salem weather history for previous 24 hours

 ConditionsComfort  
Time TempWeatherWind HumidityBarometerVisibility
11:52 AM
Tue, Aug 4
80 °FSunny.10 mph44%29.97 "Hg10 mi
10:52 AM76 °FSunny.6 mph50%29.99 "Hg10 mi
9:52 AM69 °FSunny.7 mph61%29.98 "Hg10 mi
8:52 AM64 °FSunny.7 mph68%29.98 "Hg10 mi
7:52 AM58 °FSunny.6 mph81%29.99 "Hg10 mi
6:52 AM52 °FClear.3 mph89%30.00 "Hg10 mi
5:52 AM50 °FClear.5 mph93%29.98 "Hg10 mi
4:52 AM54 °FClear.7 mph83%29.96 "Hg10 mi
3:52 AM53 °FClear.No wind86%29.96 "Hg10 mi
2:52 AM56 °FClear.3 mph77%29.96 "Hg10 mi
1:52 AM54 °FClear.No wind86%29.97 "Hg10 mi
12:52 AM55 °FClear.3 mph87%29.98 "Hg10 mi
11:52 PM
Mon, Aug 3
62 °FClear.3 mph67%29.97 "Hg10 mi
10:52 PM65 °FClear.6 mph63%29.97 "Hg10 mi
9:52 PM68 °FSunny.5 mph53%29.96 "Hg10 mi
8:52 PM72 °FSunny.5 mph46%29.94 "Hg10 mi
7:52 PM78 °FSunny.8 mph33%29.93 "Hg10 mi
6:52 PM80 °FSunny.6 mph32%29.93 "Hg10 mi
5:52 PM81 °FSunny.No wind32%29.95 "Hg10 mi
4:52 PM82 °FSunny.5 mph29%29.96 "Hg10 mi
3:52 PM82 °FSunny.12 mph29%29.97 "Hg10 mi
2:52 PM80 °FSunny.8 mph34%29.98 "Hg10 mi
1:52 PM78 °FSunny.7 mph33%29.99 "Hg10 mi
Weather by CustomWeather, © 2015

See weather overviewHow to use our weather pages